Content
SEND FEEDBACK

Daily
Averages
Monthly
Summary
United States of America

GREENFIELD, MASSACHUSETTS


Home > North America > United States > Massachusetts
Elevation: 190 feet     Latitude: 42 37N     Longitude: 072 33W

WEATHER
 
SELECT A DAY
Number of Records: 212,442;   Date Range: 7/1/96 - 7/29/14
 
SHARE

PRINT THIS DATA

[ ← Previous Day ]
WEATHER ALMANAC - DECEMBER 8, 2013
[ Next Day → ]
[ °C ]   °F
Weather ElementAverageHighLow
Temperature23.2 °F28 °F (1:52 pm)15.1 °F (5:52 am)
Dewpoint17.3 °F21 °F (10:52 am)12 °F (6:52 am)
Humidity79.3 %95 % (5:52 am)58 % (12:52 pm)
Barometer30.54 in30.60 in (9:52 am)30.49 in (1:52 am)
Wind Speed0.5 mph3.5 mph (11:52 am)
Weather ElementAverage
Visibility10 mi
Wind DirectionNNE (25.7 °)

Weather ElementTotal
Precipitation---
Heating Degree Days43.5 (Base 65)
Averaged from 23 records on December 8, 2013
WEATHER CONDITIONS BREAKOUT
WIND DIRECTION BREAKOUT
WEATHER BY HOUR - DECEMBER 8, 2013
[ °C ]   °F
Local TimeTemperatureDewpointHumidityBarometerVisibilityWind DirectionWind SpeedGust SpeedPrecipitationEventsConditions
1:52 AM18.0 °F16.0 °F92 %30.49 in10.0 miCalmClear
2:52 AM16.0 °F14.0 °F92 %30.49 in9.0 miCalmClear
3:52 AM17.1 °F14.0 °F88 %30.51 in10.0 miCalmMostly Cloudy
4:52 AM17.1 °F15.1 °F92 %30.52 in10.0 miCalmClear
5:52 AM15.1 °F14.0 °F95 %30.53 in10.0 miCalmClear
6:52 AM15.1 °F12.0 °F88 %30.56 in10.0 miCalmClear
7:52 AM18.0 °F15.1 °F88 %30.56 in10.0 miCalmClear
8:52 AM19.9 °F17.1 °F89 %30.58 in10.0 miCalmClear
9:52 AM23.0 °F19.9 °F88 %30.60 in10.0 miCalmClear
10:52 AM26.1 °F21.0 °F81 %30.60 in10.0 miCalmClear
11:52 AM27.0 °F15.1 °F61 %30.55 in10.0 miNorth (360°)3.5 mphClear
12:52 PM27.0 °F14.0 °F58 %30.55 in10.0 miCalmClear
1:52 PM28.0 °F16.0 °F61 %30.55 in10.0 miCalmClear
2:52 PM28.0 °F15.1 °F58 %30.51 in10.0 miCalmClear
3:52 PM27.0 °F17.1 °F66 %30.56 in10.0 miCalmClear
4:52 PM27.0 °F19.9 °F75 %30.54 in10.0 miCalmClear
5:52 PM26.1 °F21.0 °F81 %30.55 in10.0 miSouth (170°)3.5 mphMostly Cloudy
6:52 PM26.1 °F21.0 °F81 %30.55 in10.0 miCalmOvercast
7:52 PM26.1 °F21.0 °F81 %30.54 in10.0 miCalmOvercast
8:52 PM26.1 °F21.0 °F81 %30.53 in10.0 miCalmOvercast
9:52 PM26.1 °F19.9 °F78 %30.52 in10.0 miCalmOvercast
10:52 PM26.1 °F19.9 °F78 %30.49 in10.0 miENE (60°)3.5 mphOvercast
11:52 PM27.0 °F19.0 °F72 %30.49 in10.0 miCalmOvercast
Hourly data recorded from KORE, located miles away from Greenfield, Massachusetts







STORIES FROM OUR PARTNERS